Regional Weather Roundup
Issued by NWS Charleston, SC

Current Version | Previous Version | Text Only | Print | Product List | Glossary Off
Versions: 1 2 3 4 5 6 7 8 9 10 11 12 13 14 15 16 17 18 19 20 21 22 23 24 25 26 27 28 29 30 31 32 33 34 35 36 37 38 39 40 41 42 43 44 45 46 47 48 49 50

000
ASUS42 KCHS 260711
RWRCHS

REGIONAL WEATHER ROUNDUP
NATIONAL WEATHER SERVICE CHARLESTON SC
200 AM EST SUN FEB 26 2017

NOTE: "FAIR" INDICATES FEW OR NO CLOUDS BELOW 12,000 FEET WITH NO
SIGNIFICANT WEATHER AND/OR OBSTRUCTIONS TO VISIBILITY.

NOT ALL STATIONS ARE QUALITY CONTROLLED. USE DATA WITH CAUTION...
ESPECIALLY DEWPOINT OBSERVATIONS.

SCZ027-030-031-034>040-042>050-260800-
...SOUTHEAST SOUTH CAROLINA...

CITY           SKY/WX    TMP DP  RH WIND       PRES   REMARKS
N CHARLESTON   CLEAR     55  20  25 NW12      29.99R
WATERFRONT PRK   N/A     58  26  29 NW8G18    29.97R
MOUNT PLEASANT LGT RAIN  55  27  33 NW10      29.99R
JOHNS ISLAND   FAIR      54  25  32 W8        29.99R
PINOPOLIS        N/A     57  34  41 NW16      29.88R
MONCKS CORNER  FAIR      54  18  24 NW3       29.99R
SUMMERVILLE    FAIR      54  21  28 NW6       30.01R
BEAUFORT MCAS  CLEAR     55  24  30 NW10      30.01R
BEAUFORT ARPT  FAIR      54  28  37 NW9       30.01R
HILTON HEAD IS CLEAR     57  21  24 VRB6G18   30.02R
WALTERBORO     SUNNY     52  23  32 NW8       30.01R
ALLENDALE      FAIR      52  23  32 VRB3      30.02R

...SOUTHERN MIDLANDS AND PEE DEE...

CITY           SKY/WX    TMP DP  RH WIND       PRES   REMARKS
GEORGETOWN     FAIR      54  23  30 W7        29.97R
KINGSTREE      FAIR      50  23  34 W6        29.97R
ORANGEBURG     CLEAR     52  21  29 NW10      30.01R
BARNWELL       FAIR      52  23  32 W6G14     30.02R
AIKEN          FAIR      45  23  42 W8        30.05S
MANNING        FAIR      52  21  30 MISG      29.98R
COLUMBIA       CLEAR     50  24  36 W7        30.01R
SUMTER         CLEAR     51  21  30 NW8       29.97R
FLORENCE       CLEAR     52  23  32 NW12      29.98R
MYRTLE BEACH   NOT AVBL
N MYRTLE BEACH CLEAR     55  25  31 VRB5      29.93R

$$

GAZ063-065-086>088-099>101-113>116-118-119-134>141-150-260800-
...SOUTHEAST GEORGIA...

CITY           SKY/WX    TMP DP  RH WIND       PRES   REMARKS
SAVANNAH ARPT  CLEAR     54  21  27 NW8       30.03R
HUNTER AAF     CLEAR     56  26  31 NW5       30.00R
FORT STEWART   CLEAR     55  20  26 NW5       30.01R
STATESBORO     CLEAR     51  28  41 NW9       30.04R
SYLVANIA       SUNNY    N/A N/A N/A NW8       30.05R
CLAXTON        FAIR      51  28  40 W6        30.05R

...CSRA...CENTRAL AND FAR SOUTHEAST GEORGIA...

CITY           SKY/WX    TMP DP  RH WIND       PRES   REMARKS
THOMSON        CLEAR     47  26  43 CALM      30.10R
AUGUSTA-BUSH   CLEAR     50  23  34 NW8       30.03R
AUGUSTA-DANIEL CLEAR     50  20  30 NW9       30.04R
SWAINSBORO     FAIR      48  28  46 NW9       30.06S
VIDALIA        CLEAR     52  30  43 NW9       30.06R
EASTMAN        FAIR      49   6  18 CALM      30.10R
HAZLEHURST     FAIR      53  26  35 N9        30.05S
ALMA           CLEAR     51  26  37 NW5       30.05R
WAYCROSS       CLEAR     55  31  41 NW5       30.06R
JESUP          FAIR      52  28  40 NW6       30.05R
BAXLEY         FAIR      52  30  43 N6        30.05R
BRUNSWICK      CLEAR     55  32  41 NW3       30.05R
SAINT SIMONS   CLEAR     58  27  30 NW6       30.03R

$$

SCZ027-028-034-036>038-045-046-048>050-GAZ119-141-260800-
...LAKE AND SUPPLEMENTAL COASTAL OBSERVATIONS...

STATION/POSITION TIME  TEMP    WIND        PRES    WAVE   SWELL
                       AIR SEA DIR/SP/G            HT/PER HT/PER/DIR
                 (UTC) (F)     (DEG/KT/KT) (MB)    (FT/S) (FT/S/D)
WINYAH BAY       NOT AVBL
LAKE MURRAY      0620   51     300/  5/  9 1015.6
ACE BASIN NERRS  NOT AVBL
FORT PULASKI     0648   58 63  320/ 15/ 18 1016.8R
SAPELO ISLAND    0600   56     320/  7     1016.0

$$

ANZ835-935-AMZ111-154-330-350-352-354-370-450-454-472-260800-
...C-MAN AND BUOY OBSERVATIONS...

STATION/POSITION TIME  TEMP    WIND        PRES    WAVE   SWELL
                       AIR SEA DIR/SP/G            HT/PER HT/PER/DIR
                 (UTC) (F)     (DEG/KT/KT) (MB)    (FT/S) (FT/S/D)
BUOY 41004       0650   63 69  310/ 23/ 29 1013.8R   5/ 5   3/130/ 9
BUOY 41008       0550   63 62  320/ 21/ 25 1015.2    4/11   2/ 40/11
FOLLY BEACH CMAN 0600   58     300/  7/ 11 1015.2R
CAPERS NEARSHORE 0608   60 60  310/ 14/ 19 1014.3
FRIPP NEARSHORE  0608   61 63  320/ 14/ 19 1015.7R


STATION/POSITION TIME  TEMP    WIND        PRES    WAVE   SWELL
                       AIR SEA DIR/SP/G            HT/PER HT/PER/DIR
                 (UTC) (F)     (DEG/KT/KT) (MB)    (FT/S) (FT/S/D)
5E ST. MARYS GA  0630      65                N/A     3/10   2/100/11
FRYING PAN BUOY  0650   65 69  290/ 21/ 27 1012.6R   6/ 7   3/120/10
BUOY 41025       0650   62 74  360/ 19/ 23 1010.1R   8/ 8   7/200/ 8
CAPE LOOKOUT NC  0600   62     350/ 16/ 19 1010.3R
BUOY 41002       0650   72 71  240/ 16/ 19 1012.0R   6/ 9   5/100/ 9
BUOY 41010       NOT AVBL
ST AUGUSTINE FL  0700   62 66  320/  8/ 10 1017.8R


$$




USA.gov is the U.S. government's official web portal to all federal, state and local government web resources and services.